Weather History for Chillicothe, MO

Change the Weather History Date:

Sunday, January 27, 2013

  Actual Average (KIRK) Record (KIRK)
Temperature  
Mean Temperature 44 °F 26 °F  
Max Temperature 57 °F 36 °F 64 °F (2002)
Min Temperature 33 °F 17 °F -17 °F (1936)
Degree Days  
Heating Degree Days 21 39  
Month to date heating degree days 1053  
Since 1 July heating degree days 3396  
Cooling Degree Days 0 0  
Month to date cooling degree days 0  
Year to date cooling degree days 0  
Moisture  
Dew Point 38 °F    
Average Humidity 84    
Maximum Humidity 100    
Minimum Humidity 52    
Precipitation  
Precipitation 0.17 in 0.06 in 0.95 in (1949)
Month to date precipitation 1.02  
Year to date precipitation 1.02  
Sea Level Pressure  
Sea Level Pressure 29.95 in    
Wind  
Wind Speed 10 mph (SSE)    
Max Wind Speed 13 mph    
Max Gust Speed 22 mph    
T = Trace of Precipitation, MM = Missing Value Source: NWS Daily Summary

Daily Weather History Graph

Daily Weather History Graph

Search for Another Location

Airport:

Trip Planner

Search our weather history database for the weather conditions in past years. The results will help you decide how hot, cold, wet, or windy it might be!

Date:

Astronomy

Jan. 27, 2013 Rise Set
Actual Time 7:26 AM CST 5:28 PM CST
Civil Twilight 6:57 AM CST 5:57 PM CST
Nautical Twilight 6:25 AM CST 6:29 PM CST
Astronomical Twilight 5:53 AM CST 7:01 PM CST
Moon 6:22 PM CST (1/27) 7:19 AM CST (1/27)
Length of Visible Light 10h 59m
Length of Day
10h 01m
Full, 100% of the Moon is Illuminated
Jan 27
Full
Feb 3
Last Quarter
Feb 10
New
Feb 17
First Quarter
Feb 25
Full

Hourly Weather History & Observations

Time (CST) Temp. Windchill Dew Point Humidity Pressure Visibility Wind Dir Wind Speed Gust Speed Precip Events Conditions
12:52 AM 34.0 °F 25.0 °F 18.0 °F 52% 30.18 in - SE 12.7 mph - N/A   Unknown
1:52 AM 35.1 °F 26.9 °F 19.0 °F 52% 30.16 in - SE 11.5 mph - N/A   Unknown
2:52 AM 35.1 °F 27.4 °F 21.9 °F 59% 30.15 in - SSE 10.4 mph - N/A   Unknown
3:52 AM 33.1 °F 26.1 °F 28.0 °F 82% 30.13 in - SE 8.1 mph - 0.06 in   Unknown
4:52 AM 33.1 °F 26.9 °F 30.0 °F 89% 30.12 in - SE 6.9 mph - 0.07 in   Unknown
5:52 AM 33.1 °F 26.9 °F 30.0 °F 89% 30.11 in - ESE 6.9 mph - N/A   Unknown
6:52 AM 34.0 °F 26.0 °F 30.9 °F 89% 30.06 in - ESE 10.4 mph - 0.01 in   Unknown
7:52 AM 35.1 °F 26.4 °F 32.0 °F 89% 30.04 in - SSE 12.7 mph 21.9 mph N/A   Unknown
8:52 AM 35.1 °F 28.6 °F 35.1 °F 100% 30.04 in - SE 8.1 mph - N/A   Unknown
9:52 AM 36.0 °F 28.0 °F 36.0 °F 100% 30.00 in - SE 11.5 mph - 0.02 in   Unknown
10:52 AM 37.9 °F 30.5 °F 37.0 °F 97% 29.98 in - SSE 11.5 mph 19.6 mph N/A   Unknown
11:52 AM 39.9 °F 33.9 °F 37.9 °F 93% 29.95 in - SSE 9.2 mph - N/A   Unknown
12:52 PM 42.1 °F 37.7 °F 39.9 °F 92% 29.89 in - SE 6.9 mph - 0.01 in   Unknown
1:52 PM 46.9 °F - 44.1 °F 90% 29.85 in - SSE 9.2 mph - N/A   Unknown
2:52 PM 48.0 °F - 45.0 °F 89% 29.82 in - SSE 8.1 mph - N/A   Unknown
3:52 PM 51.1 °F - 46.9 °F 86% 29.82 in - SSE 5.8 mph - N/A   Unknown
4:52 PM 53.1 °F - 48.0 °F 83% 29.80 in - SSE 3.5 mph - N/A   Unknown
5:52 PM 51.1 °F - 48.0 °F 89% 29.79 in - SSE 4.6 mph - N/A   Unknown
6:52 PM 50.0 °F - 46.9 °F 89% 29.82 in - Calm Calm - N/A   Unknown
7:52 PM 51.1 °F - 46.9 °F 86% 29.83 in - South 5.8 mph - N/A   Unknown
8:52 PM 55.0 °F - 48.9 °F 80% 29.82 in - South 10.4 mph - N/A   Unknown
9:52 PM 55.0 °F - 50.0 °F 83% 29.82 in - South 10.4 mph - N/A   Unknown
10:52 PM 55.9 °F - 51.1 °F 84% 29.82 in - South 11.5 mph - N/A   Unknown
11:52 PM 57.0 °F - 52.0 °F 83% 29.82 in - South 11.5 mph - N/A   Unknown